Regional Weather Roundup
Issued by NWS Upton, NY

Home | Current Version | Previous Version | Text Only | Print | Product List | Glossary On
Versions: 1 2 3 4 5 6 7 8 9 10 11 12 13 14 15 16 17 18 19 20 21 22 23 24 25 26 27 28 29 30 31 32 33 34 35 36 37 38 39 40 41 42 43 44 45 46 47 48 49 50
000
ASUS41 KOKX 310704
RWROKX

REGIONAL WEATHER ROUNDUP
NATIONAL WEATHER SERVICE NEW YORK NY
300 AM EDT SUN JUL 31 2016

NOTE: "FAIR" INDICATES FEW OR NO CLOUDS BELOW 12,000 FEET WITH NO
SIGNIFICANT WEATHER AND/OR OBSTRUCTIONS TO VISIBILITY.

NYZ071-072-176-178-NJZ106-104-310800-
NEW YORK CITY METRO AREA

CITY           SKY/WX    TMP DP  RH WIND       PRES   REMARKS
Central Park   CLOUDY    74  72  93 VRB3      30.02F FOG
LaGuardia APRT CLOUDY    76  73  91 SE6       29.98F
Kennedy INTL   CLOUDY    75  72  90 E6        29.99F
Newark/Liberty CLOUDY    75  73  93 SE6       29.98F
Bronx Bot Gard   N/A     73  72  94 CALM      30.01F
Wall St Helipt CLOUDY    75  73  94 SE5       29.99F
Teterboro      CLOUDY    76  72  87 CALM      29.98F
$$

NYZ177-179-078>081-310800-
LONG ISLAND NEW YORK

CITY           SKY/WX    TMP DP  RH WIND       PRES   REMARKS
Farmingdale    CLOUDY    75  72  90 MISG      30.00F
MacArthur/ISP  CLOUDY    73  72  96 E5        30.00F
Shirley        CLOUDY    72  71  97 CALM      30.01F
Riverhead      NOT AVBL
Westhampton    CLOUDY    72  70  93 E3        30.03F
Southhampton     N/A     72  70  94 S3        29.98F
Bridgehampton    N/A     72  70  94 CALM      30.02S
East Hampton   FAIR      72  70  95 CALM      30.02S
Montauk          N/A     72  71  97 CALM      30.04F
$$

NYZ052-065-067-310800-
HUDSON VALLEY

CITY           SKY/WX    TMP DP  RH WIND       PRES   REMARKS
White Plains   CLOUDY    73  72  96 E5        30.00F FOG
Newburgh       CLOUDY    68  68 100 CALM      30.02F FOG
Montgomery     HVY RAIN  69  68  96 NE7       30.01S FOG
Poughkeepsie   CLOUDY    71  68  90 N3        30.00F
Albany         LGT RAIN  68  65  90 NW3       30.05S
$$

NJZ001-105-106-008-010-013-015-019>022-104-310800-
NEW JERSEY

CITY           SKY/WX    TMP DP  RH WIND       PRES   REMARKS
Newark/Liberty CLOUDY    75  73  93 SE6       29.98F
Teterboro      CLOUDY    76  72  87 CALM      29.98F
Caldwell       CLOUDY    75  72  90 SE6       29.99F
Morristown     HVY RAIN  73  70  88 CALM      29.99F
Somerville     CLOUDY    73  71  93 CALM      29.96F FOG
Linden         CLOUDY    74  72  91 CALM      30.00F
Sussex         LGT RAIN  70  69  97 CALM      30.00F
Abdover        NOT AVBL
Trenton        CLOUDY    74  72  93 E3        29.96F FOG
Millville      CLOUDY    75  73  93 SE5       29.95F
Atlantic City  MOCLDY    76  73  91 E7        29.95F
Wrightstown    CLOUDY    73  73  98 E5        29.94F
Toms River     CLOUDY    75  73  93 SE5       29.98F
Belmar         CLOUDY    74  73  97 SE6       29.99F
$$

PAZ047>061-062-071-310800-
EASTERN PENNSYLVANIA

CITY           SKY/WX    TMP DP  RH WIND       PRES   REMARKS
Philadelphia   LGT RAIN  76  73  91 E8        29.95F
Allentown      CLOUDY    73  70  90 E5        29.98F
Scranton       CLOUDY    69  68  96 CALM      30.00F
$$

CTZ002-004>006-009-010-012-RIZ004-006-007-MAZ004-011-015-310800-
SOUTHERN NEW ENGLAND
 IN CT

CITY           SKY/WX    TMP DP  RH WIND       PRES   REMARKS
Bradley INTL   CLOUDY    71  69  93 CALM      30.04F FOG
Hartford       CLOUDY    74  70  87 NE3       30.03F
Danbury        CLOUDY    71  69  93 NE6       30.03F
Wtrbury/Oxford   N/A     72  66  83 E3        30.05F
Bridgeport     CLOUDY    76  72  87 E6        30.01F
Meriden        CLOUDY    73  70  90 CALM      30.03F
New Haven      CLOUDY    74  73  97 NE3       30.02F
Chester        CLOUDY    73  73 100 CALM      30.04F FOG
Groton         CLOUDY    74  71  91 E6        30.02F
Wilimantic     CLOUDY    72  71  97 N3        30.05F

 IN RI

CITY           SKY/WX    TMP DP  RH WIND       PRES   REMARKS
Providence     LGT RAIN  73  70  90 S5        30.05F
Block Island   CLOUDY    72  71  97 E5        30.05F
Westerly       CLOUDY    73  68  84 NE3       30.04F
 IN MA

CITY           SKY/WX    TMP DP  RH WIND       PRES   REMARKS
Boston         CLOUDY    74  71  91 SW8       30.04F
Worchester     CLOUDY    68  66  93 W3        30.08F
Westfield      CLOUDY    69  67  93 N5        30.05F
Provincetown   LGT RAIN  71  69  93 S3        30.06F
Nantucket      FOG       65  64  97 SE6       30.06F VSB 1/4
$$

ANZ330-335-338-340-345-350-353-355-310800-
COASTAL MARINE OBSERVATIONS


STATION/POSITION TIME  SKY/WX   TEMP    WIND        PRES    VSBY  WAVE
                                AIR SEA DIR/SP/G                  HT/PER
                 (UTC)          (F)     (DEG/KT/KT) (MB)    (MI)  (FT/S)
NY HARB ENTRANCE 0550            74 73  120/  6/  8 1015.6          2/13
20S FIRE ISLAND  0550            76 76  110/ 10/ 10 1015.6          2/ 7
GREAT SOUTH BAY  0600            76 81  110/  8/ 12   N/A
23 SSW MONTAUK P 0550            73 73  120/  8/  8 1017.4          1/ 8
15 E BARNEGAT LI 0600               78                N/A           2/ 4
HUDSON CANYON    0550            77 77              1015.8          2/ 8
KINGS POINT      0600            74 74              1015.7
EXECUTION ROCKS  0600            74      70/  6/  8   N/A
CENTRAL LI SOUND 0600            76 76  120/  6/  6   N/A           0
EASTERN LI SOUND 0600            69 68  130/  4/  4   N/A
ROBBINS REEF     0600            76     130/  9/ 11 1014.8
$$


>>>>>>>>>>>>>>>>>>>>>>>>>>>> KEY <<<<<<<<<<<<<<<<<<<<<<<<<<<
>                                                          <
>     SKY/WX - Sky Condition/Present Weather               <
>     TMP    - Temperature in Fahrenheit                   <
>     DP     - Dew Point in Fahrenheit                     <
>     RH     - Relative Humidity in Percent                <
>     WIND   - Direction (from) and Speed in MPH           <
>     PRES   - Mean Sea Level Pressure (inches of Hg)      <
>     WCI    - Wind Chill Index                            <
>     VSB    - VISIBILITY IN MILES                         <
>     HX     - HEAT INDEX                                  <
>     TC     - TEMPERATURE IN CELSIUS                      <
>     VRB    - VARIABLE WIND DIRECTION                     <
>                                                          <
>>>>>>>>>>>>>>>>>>>>>>>>>>>> KEY <<<<<<<<<<<<<<<<<<<<<<<<<<<



USA.gov is the U.S. government's official web portal to all federal, state and local government web resources and services.